FW1630 Weather Reports


Display with metric or nautical units.
time (UTC)temp
F
wind
direction
speed
MPH
gust
MPH
rain 1hr
in
rain 24hr
in
rain mn
in
humidity
%
barometer
mb
20180526121003 68 90 9.0 15.0 0.00 0.00 0.00 52 1022.7
20180526120502 69 81 11.0 15.0 0.00 0.00 0.00 53 1022.7
20180526120003 67 82 10.0 15.0 0.00 0.00 0.00 53 1022.7
20180526115502 67 97 9.0 12.0 0.00 0.00 0.00 54 1022.7
20180526115003 66 95 8.0 11.0 0.00 0.00 0.00 55 1022.7
20180526114503 67 93 9.0 13.0 0.00 0.00 0.00 54 1022.7
20180526114002 67 94 9.0 14.0 0.00 0.00 0.00 54 1022.7
20180526113503 67 93 9.0 15.0 0.00 0.00 0.00 53 1022.7
20180526113002 68 90 11.0 15.0 0.00 0.00 0.00 52 1022.7
20180526112503 68 80 12.0 19.0 0.00 0.00 0.00 53 1022.7
20180526112003 68 83 11.0 19.0 0.00 0.00 0.00 53 1022.7
20180526111503 68 91 10.0 13.0 0.00 0.00 0.00 54 1022.7
20180526111003 68 72 9.0 12.0 0.00 0.00 0.00 54 1022.7
20180526110502 67 70 9.0 12.0 0.00 0.00 0.00 56 1022.7
20180526110003 65 77 10.0 13.0 0.00 0.00 0.00 57 1022.7
20180526105503 65 78 10.0 13.0 0.00 0.00 0.00 56 1022.7
20180526105003 67 74 10.0 13.0 0.00 0.00 0.00 56 1022.7
20180526104503 67 61 10.0 13.0 0.00 0.00 0.00 56 1022.7
20180526104002 65 83 13.0 20.0 0.00 0.00 0.00 56 1022.7
20180526103503 66 90 13.0 20.0 0.00 0.00 0.00 56 1022.7
20180526103004 67 87 13.0 19.0 0.00 0.00 0.00 54 1022.7
20180526102503 67 85 13.0 19.0 0.00 0.00 0.00 55 1022.7
20180526102003 67 78 11.0 17.0 0.00 0.00 0.00 54 1022.7
20180526101502 67 82 10.0 16.0 0.00 0.00 0.00 55 1022.7
20180526101003 67 90 10.0 16.0 0.00 0.00 0.00 56 1022.7
20180526100503 67 72 10.0 14.0 0.00 0.00 0.00 55 1022.7
20180526100003 67 61 11.0 14.0 0.00 0.00 0.00 56 1022.7
20180526095503 67 62 10.0 13.0 0.00 0.00 0.00 56 1022.7
20180526095003 66 76 9.0 13.0 0.00 0.00 0.00 59 1022.7
20180526094503 65 72 10.0 13.0 0.00 0.00 0.00 59 1022.7
20180526094003 66 80 8.0 13.0 0.00 0.00 0.00 58 1022.7
20180526093503 66 80 9.0 12.0 0.00 0.00 0.00 60 1022.7
20180526093003 66 69 9.0 12.0 0.00 0.00 0.00 58 1022.7
20180526092503 67 83 8.0 12.0 0.00 0.00 0.00 59 1022.7
20180526092003 66 90 9.0 12.0 0.00 0.00 0.00 62 1022.7
20180526091503 65 88 8.0 12.0 0.00 0.00 0.00 63 1022.7
20180526091003 64 77 8.0 12.0 0.00 0.00 0.00 63 1022.7
20180526090504 64 85 8.0 13.0 0.00 0.00 0.00 64 1022.7
20180526090003 64 97 8.0 13.0 0.00 0.00 0.00 64 1022.7
20180526085503 64 86 7.0 11.0 0.00 0.00 0.00 64 1022.7
20180526085004 63 52 6.0 9.0 0.00 0.00 0.00 65 1022.7
20180526084503 62 60 7.0 11.0 0.00 0.00 0.00 66 1022.7
20180526084003 60 82 8.0 11.0 0.00 0.00 0.00 68 1022.7
20180526083503 61 83 7.0 12.0 0.00 0.00 0.00 67 1022.7
20180526083003 60 70 9.0 12.0 0.00 0.00 0.00 68 1022.7
20180526082504 61 65 9.0 12.0 0.00 0.00 0.00 67 1022.7
20180526082004 60 74 10.0 11.0 0.00 0.00 0.00 69 1022.7
20180526081503 60 79 10.0 13.0 0.00 0.00 0.00 68 1022.7
20180526081003 60 67 10.0 13.0 0.00 0.00 0.00 68 1022.7
20180526080504 60 61 10.0 13.0 0.00 0.00 0.00 69 1022.7
20180526080003 59 80 12.0 19.0 0.00 0.00 0.00 70 1022.7
20180526075503 59 84 13.0 19.0 0.00 0.00 0.00 69 1022.7
20180526075004 59 76 11.0 19.0 0.00 0.00 0.00 69 1022.7
20180526074503 59 72 9.0 11.0 0.00 0.00 0.00 71 1022.7
20180526074003 59 73 9.0 11.0 0.00 0.00 0.00 73 1022.7
20180526073503 57 69 7.0 9.0 0.00 0.00 0.00 74 1022.7
20180526073004 56 85 6.0 8.0 0.00 0.00 0.00 76 1022.7
20180526072504 56 84 5.0 10.0 0.00 0.00 0.00 76 1022.7
20180526072003 56 79 6.0 11.0 0.00 0.00 0.00 76 1022.7
20180526071503 56 79 8.0 13.0 0.00 0.00 0.00 76 1022.7
20180526071004 56 80 7.0 13.0 0.00 0.00 0.00 76 1022.7
20180526070504 56 87 6.0 8.0 0.00 0.00 0.00 76 1022.7
20180526070003 56 90 6.0 7.0 0.00 0.00 0.00 77 1022.7
20180526065504 56 90 6.0 7.0 0.00 0.00 0.00 77 1022.7
20180526065004 56 75 5.0 7.0 0.00 0.00 0.00 77 1022.7
20180526064503 55 72 5.0 6.0 0.00 0.00 0.00 78 1022.7
20180526064004 55 87 4.0 6.0 0.00 0.00 0.00 78 1022.7
20180526063503 55 90 4.0 6.0 0.00 0.00 0.00 78 1022.7
20180526063003 55 90 4.0 6.0 0.00 0.00 0.00 77 1021.7
20180526062504 55 87 4.0 6.0 0.00 0.00 0.00 77 1021.7
20180526062004 55 88 6.0 8.0 0.00 0.00 0.00 78 1021.7
20180526061503 55 90 5.0 8.0 0.00 0.00 0.00 78 1021.7
20180526061004 55 78 4.0 6.0 0.00 0.00 0.00 77 1021.7
20180526060503 55 53 3.0 5.0 0.00 0.00 0.00 77 1021.7
20180526060004 55 21 4.0 7.0 0.00 0.00 0.00 78 1021.7
20180526055504 54 40 5.0 7.0 0.00 0.00 0.00 78 1021.7
20180526055004 54 84 5.0 6.0 0.00 0.00 0.00 78 1021.7
20180526054504 54 90 5.0 6.0 0.00 0.00 0.00 79 1021.7
20180526054004 54 90 4.0 6.0 0.00 0.00 0.00 80 1021.7
20180526053503 54 88 4.0 6.0 0.00 0.00 0.00 80 1021.7
20180526053004 54 67 4.0 5.0 0.00 0.00 0.00 79 1021.7
20180526052504 54 67 4.0 5.0 0.00 0.00 0.00 79 1021.7
20180526052004 54 85 4.0 6.0 0.00 0.00 0.00 79 1021.7
20180526051504 54 86 4.0 6.0 0.00 0.00 0.00 79 1021.7
20180526051003 54 84 4.0 6.0 0.00 0.00 0.00 80 1021.7
20180526050504 54 75 4.0 6.0 0.00 0.00 0.00 80 1021.7
20180526050004 54 81 4.0 6.0 0.00 0.00 0.00 80 1021.7
20180526045503 54 88 5.0 6.0 0.00 0.00 0.00 80 1021.7
20180526045004 54 79 5.0 7.0 0.00 0.00 0.00 80 1021.7
20180526044504 54 54 6.0 8.0 0.00 0.00 0.00 80 1021.7
20180526044003 54 63 6.0 8.0 0.00 0.00 0.00 80 1021.7
20180526043504 53 84 6.0 8.0 0.00 0.00 0.00 81 1021.7
20180526043004 53 80 5.0 8.0 0.00 0.00 0.00 82 1021.7
20180526042504 53 81 6.0 6.0 0.00 0.00 0.00 80 1021.7
20180526042004 53 90 5.0 6.0 0.00 0.00 0.00 82 1021.7
20180526041504 53 93 4.0 5.0 0.00 0.00 0.00 81 1021.7
20180526041004 53 86 3.0 5.0 0.00 0.00 0.00 79 1021.7
20180526040504 53 39 3.0 5.0 0.00 0.00 0.00 80 1021.7
20180526040004 53 46 3.0 4.0 0.00 0.00 0.00 80 1021.7
20180526035504 53 88 3.0 4.0 0.00 0.00 0.00 81 1021.7
20180526035004 53 86 3.0 4.0 0.00 0.00 0.00 79 1021.7
20180526034504 52 69 3.0 4.0 0.00 0.00 0.00 80 1021.7
20180526034004 52 29 2.0 4.0 0.00 0.00 0.00 80 1021.7
20180526033504 52 1 2.0 3.0 0.00 0.00 0.00 80 1021.7
20180526033004 52 1 2.0 3.0 0.00 0.00 0.00 80 1021.7
20180526032504 52 1 2.0 3.0 0.00 0.00 0.00 79 1021.7
20180526032004 52 1 1.0 2.0 0.00 0.00 0.00 79 1021.7
20180526031504 52 1 2.0 2.0 0.00 0.00 0.00 79 1021.7
20180526031004 52 1 2.0 3.0 0.00 0.00 0.00 80 1021.7
20180526030504 52 16 3.0 4.0 0.00 0.00 0.00 80 1021.7
20180526030005 52 56 3.0 4.0 0.00 0.00 0.00 79 1021.7
20180526025504 52 90 3.0 4.0 0.00 0.00 0.00 79 1021.7
20180526025004 52 90 3.0 4.0 0.00 0.00 0.00 79 1021.7
20180526024504 52 90 3.0 4.0 0.00 0.00 0.00 79 1021.7
20180526024005 53 90 2.0 4.0 0.00 0.00 0.00 79 1021.7
20180526023504 52 72 2.0 4.0 0.00 0.00 0.00 78 1021.7
20180526023004 52 37 3.0 4.0 0.00 0.00 0.00 78 1021.7
20180526022505 53 60 3.0 4.0 0.00 0.00 0.00 79 1021.7
20180526022004 53 90 4.0 6.0 0.00 0.00 0.00 78 1021.7
20180526021504 53 90 4.0 6.0 0.00 0.00 0.00 79 1021.7
20180526021005 53 90 3.0 4.0 0.00 0.00 0.00 78 1021.7
20180526020504 53 90 3.0 4.0 0.00 0.00 0.00 78 1021.7
20180526020004 53 90 3.0 5.0 0.00 0.00 0.00 77 1021.7
20180526015504 54 90 4.0 6.0 0.00 0.00 0.00 76 1021.7
20180526015004 54 90 5.0 6.0 0.00 0.00 0.00 77 1021.7
20180526014504 54 75 5.0 6.0 0.00 0.00 0.00 77 1021.7
20180526014005 54 75 4.0 6.0 0.00 0.00 0.00 77 1021.7
20180526013504 54 94 4.0 6.0 0.00 0.00 0.00 76 1021.7
20180526013005 54 89 5.0 6.0 0.00 0.00 0.00 76 1021.7
20180526012504 54 83 5.0 7.0 0.00 0.00 0.00 75 1021.7
20180526012004 54 87 5.0 7.0 0.00 0.00 0.00 77 1021.7
20180526011505 54 90 3.0 6.0 0.00 0.00 0.00 75 1021.7
20180526011005 54 90 3.0 4.0 0.00 0.00 0.00 74 1021.7
20180526010504 54 90 3.0 4.0 0.00 0.00 0.00 75 1021.7
20180526010005 54 90 3.0 6.0 0.00 0.00 0.00 75 1021.7
20180526005505 54 58 3.0 6.0 0.00 0.00 0.00 74 1021.7
20180526005005 54 16 3.0 4.0 0.00 0.00 0.00 74 1021.7
20180526004504 54 8 3.0 4.0 0.00 0.00 0.00 75 1021.7
20180526004005 54 23 4.0 5.0 0.00 0.00 0.00 75 1021.7
20180526003504 54 66 4.0 5.0 0.00 0.00 0.00 74 1021.7
20180526003004 54 90 4.0 5.0 0.00 0.00 0.00 74 1021.7
20180526002505 55 90 3.0 5.0 0.00 0.00 0.00 73 1021.7
20180526002004 55 90 4.0 5.0 0.00 0.00 0.00 73 1021.7
20180526001504 54 97 4.0 8.0 0.00 0.00 0.00 73 1021.7
20180526001005 55 99 5.0 8.0 0.00 0.00 0.00 73 1021.7
20180526000505 55 94 5.0 8.0 0.00 0.00 0.00 73 1021.7
20180525235928 55 91 4.0 8.0 0.00 0.00 0.00 73 1021.7
20180525235427 55 86 4.0 5.0 0.00 0.00 0.00 72 1021.7
20180525234927 55 82 5.0 8.0 0.00 0.00 0.00 73 1021.7
20180525234427 55 70 5.0 8.0 0.00 0.00 0.00 73 1021.7
20180525233927 55 53 4.0 6.0 0.00 0.00 0.00 73 1021.7
20180525233427 56 46 3.0 6.0 0.00 0.00 0.00 71 1021.7
20180525232927 56 64 3.0 6.0 0.00 0.00 0.00 71 1021.7
20180525232428 55 87 3.0 4.0 0.00 0.00 0.00 71 1021.7
20180525231927 56 90 3.0 6.0 0.00 0.00 0.00 71 1021.7
20180525231428 56 90 4.0 6.0 0.00 0.00 0.00 70 1021.7
20180525230927 56 90 5.0 6.0 0.00 0.00 0.00 70 1021.7
20180525230427 56 90 5.0 6.0 0.00 0.00 0.00 69 1021.7
20180525225928 56 90 3.0 6.0 0.00 0.00 0.00 70 1021.7
20180525225427 56 90 3.0 4.0 0.00 0.00 0.00 70 1021.7
20180525224929 57 70 3.0 5.0 0.00 0.00 0.00 70 1021.7
20180525224427 56 74 4.0 5.0 0.00 0.00 0.00 70 1021.7
20180525223929 57 87 4.0 6.0 0.00 0.00 0.00 70 1021.7
20180525223427 57 85 4.0 8.0 0.00 0.00 0.00 69 1021.7
20180525222928 57 80 4.0 8.0 0.00 0.00 0.00 70 1020.7
20180525222427 57 72 4.0 6.0 0.00 0.00 0.00 70 1020.7
20180525221927 57 86 4.0 6.0 0.00 0.00 0.00 69 1020.7
20180525221427 56 90 6.0 8.0 0.00 0.00 0.00 71 1020.7
20180525220927 57 80 5.0 8.0 0.00 0.00 0.00 70 1020.7
20180525220427 57 77 6.0 9.0 0.00 0.00 0.00 68 1020.7
20180525215928 57 63 7.0 9.0 0.00 0.00 0.00 68 1020.7
20180525215427 57 69 7.0 10.0 0.00 0.00 0.00 68 1020.7
20180525214928 57 79 6.0 10.0 0.00 0.00 0.00 66 1020.7
20180525214427 58 48 4.0 8.0 0.00 0.00 0.00 66 1020.7
20180525213928 58 19 4.0 8.0 0.00 0.00 0.00 64 1020.7
20180525213427 58 59 5.0 8.0 0.00 0.00 0.00 65 1020.7
20180525212928 58 79 5.0 8.0 0.00 0.00 0.00 63 1020.7
20180525212427 59 90 6.0 10.0 0.00 0.00 0.00 62 1020.7
20180525211928 59 90 6.0 10.0 0.00 0.00 0.00 62 1020.7
20180525211428 59 90 6.0 8.0 0.00 0.00 0.00 61 1020.7
20180525210928 59 90 5.0 8.0 0.00 0.00 0.00 60 1020.7
20180525210428 60 90 6.0 10.0 0.00 0.00 0.00 58 1020.7
20180525205928 60 87 5.0 10.0 0.00 0.00 0.00 58 1020.7
20180525205428 60 90 6.0 10.0 0.00 0.00 0.00 57 1020.7
20180525204927 60 87 7.0 13.0 0.00 0.00 0.00 58 1020.7
20180525204428 60 79 7.0 13.0 0.00 0.00 0.00 58 1020.7
20180525203927 60 75 6.0 9.0 0.00 0.00 0.00 58 1020.7
20180525203428 60 83 7.0 9.0 0.00 0.00 0.00 58 1020.7
20180525202928 60 82 7.0 9.0 0.00 0.00 0.00 57 1020.7
20180525202428 60 82 6.0 9.0 0.00 0.00 0.00 57 1020.7
20180525201928 61 78 6.0 7.0 0.00 0.00 0.00 56 1020.7
20180525201428 61 78 6.0 11.0 0.00 0.00 0.00 54 1020.7
20180525200928 61 92 7.0 11.0 0.00 0.00 0.00 53 1020.7
20180525200428 62 92 7.0 11.0 0.00 0.00 0.00 51 1020.7
20180525195928 62 92 7.0 10.0 0.00 0.00 0.00 51 1020.7
20180525195427 63 91 8.0 10.0 0.00 0.00 0.00 50 1020.7
20180525194928 63 92 8.0 10.0 0.00 0.00 0.00 50 1020.7
20180525194428 64 97 6.0 10.0 0.00 0.00 0.00 49 1019.7
20180525193928 64 91 6.0 8.0 0.00 0.00 0.00 49 1019.7
20180525193428 64 88 6.0 8.0 0.00 0.00 0.00 49 1019.7
20180525192928 64 90 5.0 6.0 0.00 0.00 0.00 49 1019.7
20180525192428 64 79 5.0 7.0 0.00 0.00 0.00 49 1019.7
20180525191928 63 80 5.0 7.0 0.00 0.00 0.00 48 1019.7
20180525191428 64 92 5.0 9.0 0.00 0.00 0.00 48 1019.7
20180525190928 63 87 5.0 9.0 0.00 0.00 0.00 48 1019.7
20180525190428 63 65 5.0 7.0 0.00 0.00 0.00 48 1019.7
20180525185928 63 79 6.0 8.0 0.00 0.00 0.00 47 1019.7
20180525185428 64 90 7.0 11.0 0.00 0.00 0.00 47 1019.7
20180525184929 64 87 6.0 11.0 0.00 0.00 0.00 46 1019.7
20180525184428 64 87 6.0 10.0 0.00 0.00 0.00 46 1019.7
20180525183928 64 75 8.0 11.0 0.00 0.00 0.00 45 1019.7
20180525183428 65 78 8.0 12.0 0.00 0.00 0.00 45 1019.7
20180525182928 65 92 7.0 12.0 0.00 0.00 0.00 45 1019.7
20180525182429 65 92 8.0 12.0 0.00 0.00 0.00 44 1019.7
20180525181928 65 80 9.0 13.0 0.00 0.00 0.00 44 1019.7
20180525181428 66 80 10.0 13.0 0.00 0.00 0.00 44 1019.7
20180525180928 66 86 9.0 11.0 0.00 0.00 0.00 44 1019.7
20180525180428 67 87 9.0 13.0 0.00 0.00 0.00 43 1019.7
20180525175928 67 91 8.0 13.0 0.00 0.00 0.00 44 1019.7
20180525175429 67 91 8.0 13.0 0.00 0.00 0.00 44 1019.7
20180525174928 68 90 8.0 13.0 0.00 0.00 0.00 44 1019.7
20180525174428 68 90 10.0 17.0 0.00 0.00 0.00 44 1019.7
20180525173928 67 90 13.0 18.0 0.00 0.00 0.00 44 1019.7
20180525173428 67 90 13.0 18.0 0.00 0.00 0.00 44 1019.7
20180525172929 68 90 11.0 15.0 0.00 0.00 0.00 44 1019.7
20180525172428 68 81 10.0 14.0 0.00 0.00 0.00 44 1019.7
20180525171929 67 79 9.0 12.0 0.00 0.00 0.00 44 1019.7
20180525171428 67 87 8.0 12.0 0.00 0.00 0.00 44 1019.7
20180525170928 67 87 9.0 12.0 0.00 0.00 0.00 44 1019.7
20180525170429 67 91 8.0 12.0 0.00 0.00 0.00 44 1019.7
20180525165928 68 90 8.0 12.0 0.00 0.00 0.00 44 1019.7
20180525165428 68 85 8.0 12.0 0.00 0.00 0.00 44 1019.7
20180525164929 69 73 7.0 11.0 0.00 0.00 0.00 44 1019.7
20180525164428 69 59 6.0 11.0 0.00 0.00 0.00 44 1019.7
20180525163928 69 86 8.0 13.0 0.00 0.00 0.00 44 1019.7
20180525163429 69 88 9.0 13.0 0.00 0.00 0.00 44 1019.7
20180525162928 69 81 8.0 13.0 0.00 0.00 0.00 44 1019.7
20180525162428 69 88 9.0 13.0 0.00 0.00 0.00 44 1019.7
20180525161928 69 97 8.0 11.0 0.00 0.00 0.00 44 1019.7
20180525161428 69 100 9.0 12.0 0.00 0.00 0.00 44 1019.7
20180525160929 69 94 11.0 16.0 0.00 0.00 0.00 44 1019.7
20180525160428 70 94 10.0 16.0 0.00 0.00 0.00 44 1019.7
20180525155929 71 95 9.0 17.0 0.00 0.00 0.00 44 1019.7
20180525155428 71 91 10.0 17.0 0.00 0.00 0.00 44 1019.7
20180525154928 71 90 11.0 17.0 0.00 0.00 0.00 44 1019.7
20180525154429 70 90 11.0 17.0 0.00 0.00 0.00 44 1019.7
20180525153934 70 88 9.0 15.0 0.00 0.00 0.00 44 1019.7
20180525153428 71 88 10.0 15.0 0.00 0.00 0.00 44 1019.7
20180525152929 70 91 10.0 15.0 0.00 0.00 0.00 44 1019.7
20180525152428 70 81 10.0 15.0 0.00 0.00 0.00 44 1019.7
20180525151929 70 82 10.0 14.0 0.00 0.00 0.00 44 1019.7
20180525151429 70 91 12.0 16.0 0.00 0.00 0.00 44 1019.7
20180525150928 71 90 12.0 16.0 0.00 0.00 0.00 44 1019.7
20180525150429 71 86 12.0 18.0 0.00 0.00 0.00 44 1019.7
20180525145928 71 80 13.0 18.0 0.00 0.00 0.00 44 1019.7
20180525145429 71 85 12.0 19.0 0.00 0.00 0.00 44 1019.7
20180525144929 71 83 12.0 19.0 0.00 0.00 0.00 44 1019.7
20180525144428 71 83 11.0 19.0 0.00 0.00 0.00 44 1018.7
20180525143929 71 91 12.0 16.0 0.00 0.00 0.00 45 1018.7
20180525143428 71 92 11.0 17.0 0.00 0.00 0.00 45 1018.7
20180525142929 71 93 12.0 20.0 0.00 0.00 0.00 44 1019.7
20180525142429 72 97 10.0 20.0 0.00 0.00 0.00 44 1019.7
20180525141928 72 101 8.0 11.0 0.00 0.00 0.00 44 1019.7
20180525141429 72 101 10.0 17.0 0.00 0.00 0.00 44 1018.7
20180525140928 72 97 10.0 17.0 0.00 0.00 0.00 44 1018.7
20180525140429 72 91 9.0 11.0 0.00 0.00 0.00 44 1018.7
20180525135929 72 79 8.0 11.0 0.00 0.00 0.00 44 1019.7
20180525135429 72 79 8.0 13.0 0.00 0.00 0.00 44 1019.7
20180525134929 71 91 10.0 15.0 0.00 0.00 0.00 44 1019.7
20180525134428 72 92 11.0 15.0 0.00 0.00 0.00 44 1018.7
20180525133929 72 80 10.0 13.0 0.00 0.00 0.00 44 1018.7
20180525133429 72 78 9.0 13.0 0.00 0.00 0.00 44 1018.7
20180525132929 73 85 9.0 13.0 0.00 0.00 0.00 44 1019.7
20180525132429 72 81 9.0 13.0 0.00 0.00 0.00 44 1019.7
20180525131929 71 92 9.0 13.0 0.00 0.00 0.00 44 1019.7
20180525131429 71 96 7.0 13.0 0.00 0.00 0.00 43 1018.7
20180525130929 72 94 7.0 12.0 0.00 0.00 0.00 44 1018.7
20180525130429 71 94 9.0 13.0 0.00 0.00 0.00 44 1018.7
20180525125929 71 92 8.0 13.0 0.00 0.00 0.00 44 1019.7
20180525125429 72 90 8.0 12.0 0.00 0.00 0.00 44 1019.7
20180525124930 72 84 8.0 12.0 0.00 0.00 0.00 44 1019.7
20180525124429 71 80 8.0 11.0 0.00 0.00 0.00 44 1018.7
20180525123929 72 91 8.0 10.0 0.00 0.00 0.00 43 1018.7
20180525123429 71 90 7.0 11.0 0.00 0.00 0.00 44 1018.7
20180525122929 71 87 9.0 13.0 0.00 0.00 0.00 45 1018.7
20180525122429 71 90 11.0 15.0 0.00 0.00 0.00 44 1018.7
20180525121929 71 90 10.0 15.0 0.00 0.00 0.00 43 1018.7
20180525121429 72 90 10.0 15.0 0.00 0.00 0.00 45 1018.7